This is the latest recevied weather packets stored in our database for station/object N9BID. If no packets are shown the sender has not sent any weather packets the latest 10 day(s).
| Time | Temp. | Humidity | Pressure | Rain* | Wind** | Luminosity | Snow |
|---|---|---|---|---|---|---|---|
| 1777096209 | 5.56° C | 98% | 1005.5 hPa | 0 mm | - | 0 W/m² | - |
| 1777095909 | 5.56° C | 98% | 1005.4 hPa | 0 mm | - | 0 W/m² | - |
| 1777095609 | 6.11° C | 97% | 1005.3 hPa | 0 mm | - | 0 W/m² | - |
| 1777095307 | 6.11° C | 97% | 1005.1 hPa | 0 mm | - | 0 W/m² | - |
| 1777095002 | 6.11° C | 98% | 1005 hPa | 0 mm | - | 0 W/m² | - |
| 1777094698 | 5.56° C | 98% | 1005 hPa | 0 mm | - | 0 W/m² | - |
| 1777094398 | 5.56° C | 98% | 1005.2 hPa | 0 mm | - | 0 W/m² | - |
| 1777094097 | 5.56° C | 97% | 1005.5 hPa | 0 mm | - | 0 W/m² | - |
| 1777093793 | 6.11° C | 97% | 1005.8 hPa | 0 mm | - | 0 W/m² | - |
| 1777093489 | 6.11° C | 96% | 1005.7 hPa | 0 mm | - | 0 W/m² | - |
| 1777093185 | 6.11° C | 95% | 1005.4 hPa | 0 mm | - | 0 W/m² | - |
| 1777092885 | 6.67° C | 94% | 1005.3 hPa | 0 mm | - | 0 W/m² | - |
| 1777092580 | 6.67° C | 94% | 1005.5 hPa | 0 mm | - | 0 W/m² | - |
| 1777092276 | 6.67° C | 93% | 1005.7 hPa | 0 mm | - | 0 W/m² | - |
| 1777091973 | 6.67° C | 92% | 1005.5 hPa | 0 mm | - | 0 W/m² | - |
| 1777091668 | 7.22° C | 92% | 1005.3 hPa | 0 mm | - | 0 W/m² | - |
| 1777091364 | 7.78° C | 90% | 1005.5 hPa | 0 mm | - | 0 W/m² | - |
| 1777091063 | 8.33° C | 90% | 1005.1 hPa | 0 mm | - | 0 W/m² | - |
| 1777090761 | 8.33° C | 90% | 1005 hPa | 0 mm | - | 0 W/m² | - |
| 1777090458 | 8.33° C | 89% | 1004.8 hPa | 0 mm | - | 0 W/m² | - |
| 1777090153 | 8.33° C | 88% | 1004.8 hPa | 0 mm | - | 0 W/m² | - |
| 1777089848 | 8.89° C | 87% | 1004.8 hPa | 0 mm | - | 0 W/m² | - |
| 1777089544 | 8.89° C | 87% | 1005 hPa | 0 mm | - | 0 W/m² | - |
| 1777089240 | 8.33° C | 87% | 1004.8 hPa | 0 mm | - | 0 W/m² | - |
| 1777088935 | 8.33° C | 86% | 1005 hPa | 0 mm | - | 0 W/m² | - |
* Rain latest hour (hover to see other rain measurements)
** Current wind speed in m/s (hover to see current wind gust speed)